Regional Weather Roundup
Issued by NWS Albany, NY

Home | Current Version | Previous Version | Text Only | Print | Product List | Glossary On
Versions: 1 2 3 4 5 6 7 8 9 10 11 12 13 14 15 16 17 18 19 20 21 22 23 24 25 26 27 28 29 30 31 32 33 34 35 36 37 38 39 40 41 42 43 44 45 46 47 48 49 50
000
ASUS41 KALY 171010
RWRALY

NEW YORK STATE HOURLY WEATHER ROUNDUP
NATIONAL WEATHER SERVICE ALBANY NY
500 AM EST WED JAN 17 2018

NOTE: "FAIR" INDICATES FEW OR NO CLOUDS BELOW 12,000 FEET WITH NO
SIGNIFICANT WEATHER AND/OR NO OBSTRUCTIONS TO VISIBILITY.

NYZ032-033-038>043-046>054-057>066-NYZ062>081-082-084-171100-
EAST


CITY           SKY/WX    TMP DP  RH WIND       PRES   REMARKS
ALBANY         LGT SNOW  26  22  84 N6        30.32F FOG     WCI  19
GLENS FALLS    LGT SNOW  24  23  96 N3        30.32F FOG
POUGHKEEPSIE   LGT SNOW  29  26  89 CALM      30.28F FOG
NEWBURGH       LGT SNOW  28  28 100 CALM      30.28F FOG
MONTGOMERY     LGT SNOW  29  27  92 CALM      30.27S VSB 1
WHITE PLAINS   DRIZZLE   34  34 100 E6        30.23F FOG     WCI  29
ISLIP          LGT RAIN  39  39 100 N5        30.24F
NEW YORK CITY  CLOUDY    35  33  92 NE7       30.25F WCI  29
CENTRAL PARK   CLOUDY    36  35  96 N3        30.27F FOG
$$

NYZ005>009-017-018-044>046-055-056-171100-
CENTRAL


CITY           SKY/WX    TMP DP  RH WIND       PRES   REMARKS
FULTON         LGT SNOW  22  18  85 W9        30.35S FOG     WCI  12
SYRACUSE       FLURRIES  19  17  92 W15       30.36R WCI   5
ROME           CLOUDY    18  17  96 CALM      30.33F FOG
ELMIRA         FLURRIES  20  13  74 W9        30.33R WCI   9
BINGHAMTON     LGT SNOW  24  22  91 W5        30.22S VSB 1   WCI  18
MONTICELLO     LGT SNOW  26  25  96 CALM      30.23F FOG
$$

NYZ026>034-041>043-087-171100-
NORTH


CITY           SKY/WX    TMP DP  RH WIND       PRES   REMARKS
WATERTOWN      LGT SNOW  13  12  96 CALM      30.35S FOG
FORT DRUM      NOT AVBL
OGDENSBURG     MOCLDY    11   9  92 CALM      30.35F
MASSENA        CLOUDY    11   9  92 CALM      30.37F
SARANAC LAKE   CLOUDY     8   6  92 CALM      30.23F
PLATTSBURGH    CLOUDY    12   9  87 N5        30.36F FOG     WCI   4
$$

NYZ001>004-010>016-019>021-085-171100-
WEST


CITY           SKY/WX    TMP DP  RH WIND       PRES   REMARKS
NIAGARA FALLS  CLOUDY    16   8  71 SW15      30.37F WCI   1
BUFFALO        LGT SNOW  13   9  84 SW14      30.38S FOG     WCI  -2
DUNKIRK        CLOUDY     9   3  77 SW9       30.42S WCI  -4
JAMESTOWN      FLURRIES   2  -1  88 SW9       30.33S WCI -13
WELLSVILLE     FAIR       8   4  83 CALM      30.27F
ROCHESTER      CLOUDY    16   8  71 W18       30.39S WCI   0
PENN YAN       CLOUDY    17   8  67 SW9       30.34R WCI   6
$$

             KEY
       WCI = WIND CHILL INDEX
       VSB = VISIBILITY
       HX  = HEAT INDEX
$$



USA.gov is the U.S. government's official web portal to all federal, state and local government web resources and services.